Location: Rounton
(54.4000°N, 1.3500°W)
Time: 13:46:34
(UTC+00:00)

Transit 4A - Pass Details

Date: 02 December 2021
Orbit: 864 x 981 km, 66.8° (Epoch: 20 January)

Event Time Altitude Azimuth Distance (km) Brightness Sun altitude
Rises 04:35:00 0° 318° (NW) 3,597 - -29.2°
Reaches altitude 10° 04:37:33 10° 314° (NW) 2,667 - -28.9°
Maximum altitude 04:43:35 54° 239° (WSW) 1,157 - -28.0°
Exits shadow 04:45:03 44° 196° (SSW) 1,301 8.5 -27.8°
Drops below altitude 10° 04:49:44 10° 164° (SSE) 2,714 10.5 -27.1°
Sets 04:52:21 0° 160° (SSE) 3,666 11.3 -26.7°
